RH
97 90 82 87 86 86 90 94 92 80 81 92 73 64 57 30 13 13 15 27 78 95 96 93 91 86 85
100 100 88 85 91 96 98 98 92 86 85 86 66 59 30 13 13 15 20 49 34 80 96 95 92 92 94
100 100 98 90 88 96 95 96 96 87 91 62 59 36 13 11 15 17 23 28 28 33 86 96 95 95 98
100 98 95 93 94 99 99 99 91 92 69 62 42 15 10 13 17 21 25 28 31 60 98 95 92 100 100
100 100 90 100 99 99 100 100 93 77 64 48 19 13 10 15 20 27 25 29 34 89 99 96 95 99 95
100 93 72 87 100 100 100 96 82 59 47 24 14 11 17 24 30 41 25 27 34 98 96 97 97 96 96
78 72 77 72 90 95 98 88 61 48 29 15 11 15 29 33 37 27 25 28 28 91 90 72 95 95 95
86 85 70 75 96 95 90 60 46 30 16 14 16 29 45 45 31 29 24 17 14 15 18 27 52 47 44
100 100 100 100 100 93 61 41 28 20 15 14 18 30 33 25 26 29 21 15 20 20 30 39 42 47 55
100 100 100 100 91 72 51 41 19 16 28 30 31 37 24 38 38 30 33 36 45 30 37 45 43 58 60
100 100 100 90 82 65 51 34 14 22 29 28 29 32 34 34 23 23 32 36 33 31 41 56 59 96 85
100 100 100 95 85 38 37 16 19 26 23 22 33 34 37 32 28 26 27 20 28 36 46 56 68 81 95
97 99 100 81 42 75 60 14 21 25 22 26 33 36 35 35 28 19 18 18 29 48 64 65 65 71 75
100 99 84 66 60 75 25 28 28 22 27 33 35 34 29 24 34 19 19 42 34 50 63 63 68 72 79
100 97 70 64 94 56 68 38 25 27 33 35 34 29 23 25 19 23 29 30 40 58 68 70 68 74 77
100 84 73 94 96 72 58 30 28 33 38 39 38 25 20 16 29 32 33 47 59 67 73 80 69 75 84
86 73 93 99 93 93 40 29 32 38 37 34 22 24 22 27 26 37 50 57 65 72 81 88 86 75 82
Wind_Speed
37 35 40 37 37 37 35 30 31 36 37 34 34 34 33 36 35 34 30 24 18 15 15 16 17 18 21
44 39 39 41 40 37 34 32 33 37 37 34 33 33 32 32 32 27 23 20 19 16 15 15 16 18 20
44 34 38 38 38 35 33 35 36 35 34 33 30 30 28 29 26 23 21 20 19 18 15 14 17 19 20
41 37 42 41 33 35 33 33 32 30 31 27 28 28 25 26 21 21 20 20 19 17 13 17 17 20 19
36 39 40 42 40 35 32 29 28 28 26 26 25 26 23 22 21 20 19 17 19 15 17 17 19 19 21
39 41 35 41 42 33 29 26 27 27 26 22 23 24 20 18 20 21 21 19 16 16 19 18 19 20 22
44 44 34 37 41 32 30 27 24 25 21 23 21 21 18 17 20 21 16 14 18 18 20 20 20 21 21
43 39 38 34 33 29 24 22 22 20 19 18 16 17 17 20 19 17 14 17 19 18 20 21 21 20 21
46 42 35 29 28 27 26 22 20 15 15 16 14 16 19 17 12 14 15 18 15 18 19 20 20 19 21
48 41 34 29 27 25 19 18 16 9 15 13 12 13 7 8 8 12 17 16 17 19 18 19 15 20 20
43 38 33 30 24 20 17 16 13 11 13 13 11 11 11 15 14 13 10 15 19 19 19 16 17 17 23
37 33 31 24 24 17 11 13 11 11 14 13 11 11 13 18 17 12 17 19 15 16 17 19 18 19 19
34 33 27 23 20 16 14 14 11 11 12 11 11 11 12 17 22 21 22 22 16 15 17 22 21 22 24
36 30 26 23 18 14 13 12 13 9 9 9 10 12 15 17 21 22 19 19 19 21 22 23 24 22 21
34 30 27 22 18 16 13 14 10 7 6 7 9 11 15 17 21 20 18 19 22 23 24 27 25 22 18
33 30 27 22 18 17 14 12 8 6 7 8 9 13 13 13 14 15 16 20 21 24 24 27 28 22 21
33 32 25 20 19 15 13 10 7 6 6 6 8 10 12 17 20 14 21 23 26 27 26 25 29 28 26
Wind_Direction
246 241 255 255 263 268 272 271 277 284 286 287 286 289 292 295 297 295 291 286 285 284 284 286 290 293 293
255 250 253 259 261 262 265 262 270 273 278 283 283 289 294 296 295 292 289 284 287 281 278 283 289 291 293
250 246 255 253 254 256 256 258 259 267 275 278 284 290 295 294 292 287 285 288 286 282 281 285 285 290 290
245 248 255 250 247 249 246 249 261 267 272 279 288 295 295 288 287 282 286 287 285 280 278 279 287 293 292
236 242 251 251 246 242 245 252 259 264 271 278 288 291 291 287 290 289 290 289 285 274 272 281 284 287 287
233 248 256 266 255 240 242 236 244 258 267 278 287 288 289 285 284 281 291 284 274 270 278 282 285 283 286
252 251 250 254 257 238 237 241 244 256 269 285 286 286 288 284 283 288 284 277 279 276 282 288 288 289 290
257 253 253 253 249 244 241 236 241 253 272 280 285 287 289 287 285 276 265 286 291 286 290 291 291 288 292
245 242 248 244 231 231 222 227 232 250 270 274 285 283 292 292 271 259 274 290 287 290 292 292 292 289 292
235 233 233 221 218 220 220 233 231 232 269 268 275 291 307 291 267 279 288 287 291 302 298 296 277 291 290
233 224 215 222 211 210 222 229 230 232 262 262 276 287 282 288 295 306 288 298 298 296 296 291 293 283 288
212 205 203 209 210 198 208 222 223 251 259 272 275 278 280 293 301 297 297 300 301 301 295 292 286 284 277
209 211 207 198 185 196 210 211 232 250 262 276 276 280 289 291 301 310 316 315 308 308 301 297 296 294 291
207 204 191 180 186 194 192 210 232 241 260 264 272 288 297 301 299 305 305 289 304 310 309 301 299 298 292
202 191 180 178 187 186 201 219 220 236 261 261 282 300 306 302 297 304 307 305 308 306 302 300 303 302 301
189 184 180 183 183 190 202 211 214 221 232 264 288 301 307 313 302 299 299 307 313 309 305 301 304 309 298
182 176 177 177 179 186 197 203 206 215 242 277 294 308 313 308 319 309 314 320 313 309 311 307 300 306 303